Meath Environmental Platform

Observations for Trim Patrick St

Time AQI Temp °C Hum % Pres Pa CO μg/m³ H₂S μg/m³ NO μg/m³ NO₂ μg/m³ O₃ μg/m³ SO₂ μg/m³ PM1 μg/m³ PM2.5 μg/m³ PM10 μg/m³
Thursday 27 August 2026
19:06 3 19.8 78 38,460 0 4.56 0.82 17.82 49.78 1.37 17.43 25.71 28.28
19:05 3 19.9 78 38,460 0.02 5.9 1.01 27.27 38.12 1.67 18.29 25.03 27.54
19:04 3 19.9 78 38,460 0.03 5.61 0.83 23.72 46.87 1.31 18.29 27.16 29.87
19:02 3 19.9 78 38,460 0 3.53 0.66 17.83 44.25 1.46 15.71 23.65 26.02
19:01 3 20 78 38,460 0 2.66 0.63 10.78 54.12 1.93 15.71 22.96 25.25
18:59 3 20 78 38,460 0 3.71 0.91 13.94 49.28 1.7 16.57 24.39 26.83
18:58 3 20.1 78 38,460 0 3.79 0.78 17.27 48.2 1.73 17.43 25.8 28.38
18:56 3 20.1 78 38,460 0 2.58 1.12 11.15 51.87 2.16 15.71 23.01 25.31
18:54 3 20.2 78 38,460 0 2.21 1.02 10.73 50.59 2.02 14.86 20.2 22.22
18:53 3 20.2 77 38,460 0 2.15 1.28 10.92 53.34 2.38 14.86 23.73 26.11
18:52 3 20.2 77 38,460 0 1.97 1.21 11.71 49.2 1.7 19.14 26.56 29.21
18:50 3 20.3 78 38,460 0 4.78 1.12 21.29 41.5 2.02 15.71 23.02 25.32
18:46 3 20.4 77 38,460 0 5.33 1.32 23.16 52.47 1.41 18.29 25.89 28.48
18:45 3 20.4 77 38,460 0 3.65 1.32 14.06 48.13 2.57 15.71 22.36 24.59
18:44 3 20.4 77 38,460 0 4.31 1.12 23.8 38.88 2.52 15.71 22.36 24.59
18:43 3 20.4 77 38,460 0 5.36 1.11 26.37 39.31 2.33 17.43 24.49 26.94
18:42 3 20.5 77 38,460 0 4.99 0.95 21.82 45 2.02 14.86 22.37 24.61
18:41 3 20.4 77 38,460 0 4.36 0.94 15.45 53.14 2.22 14 18.84 20.72
18:40 3 20.5 77 38,460 0 4.41 0.81 14.85 52.66 3.02 14.86 23.09 25.4
18:39 3 20.5 77 38,460 0 3.28 0.69 13.66 50.67 2.43 15.71 22.39 24.63